Location: *
(49.9839°N, 10.1847°E)
Time: 10:09:45
(UTC+00:00)

Daily predictions for brighter satellites

Satellite Brightness Start Highest point End
(mag) Time Altitude Azimuth Time Altitude Azimuth Time Altitude Azimuth
CZ-2C R/B 3.4 18:09:06 10° SE 18:13:51 43° ENE 18:18:24 10° N
STARLINK-1130 (DARKSAT) 4.0 18:10:53 10° WNW 18:15:00 58° N 18:19:05 10° E
STARLINK-1082 3.6 18:11:05 10° WNW 18:15:09 83° SSW 18:19:11 10° ESE
STARLINK-1232 3.7 18:12:45 10° SSW 18:15:34 32° SE 18:18:25 10° E
Cosmos 1048 Rocket 4.0 18:10:49 10° SSW 18:15:55 69° ESE 18:21:06 10° NNE
STARLINK-1217 3.7 18:13:11 10° SSW 18:16:01 33° SE 18:18:53 10° E
STARLINK-1208 3.7 18:13:36 10° SSW 18:16:27 33° SE 18:19:20 10° E
STARLINK-1229 3.7 18:14:04 10° SSW 18:16:55 33° SE 18:19:46 10° E
STARLINK-1271 3.7 18:14:31 10° SSW 18:17:22 33° SE 18:20:15 10° E
STARLINK-1270 3.7 18:14:58 10° SSW 18:17:50 34° SE 18:20:42 10° E
Meteor 1-22 Rocket 4.4 18:13:09 10° SSE 18:18:07 44° E 18:23:07 10° NNE
STARLINK-1154 3.7 18:15:24 10° SSW 18:18:15 34° SE 18:21:08 10° E
STARLINK-1197 3.6 18:16:18 10° SSW 18:19:09 34° SE 18:22:03 10° E
Resurs 01 Rocket 3.3 18:16:31 10° E 18:19:21 17° ENE 18:22:10 10° NNE
STARLINK-1189 3.6 18:16:45 10° SSW 18:19:37 35° SE 18:22:30 10° ENE
STARLINK-1100 3.6 18:15:39 10° WNW 18:19:42 79° SSW 18:23:44 10° ESE
Cosmos 1939 Rocket 4.2 18:16:07 10° S 18:19:55 43° W 18:23:42 10° NNW
STARLINK-1084 4.0 18:15:52 10° WNW 18:19:58 59° N 18:24:05 10° E
STARLINK-1187 3.5 18:17:30 10° SW 18:20:26 39° SSE 18:23:24 10° ENE
STARLINK-1188 3.6 18:17:37 10° SW 18:20:30 35° SE 18:23:24 10° ENE
Cosmos 371 Rocket 4.1 18:16:00 10° NNW 18:20:45 57° WSW 18:25:28 10° S
STARLINK-1198 3.6 18:17:52 10° SW 18:20:45 35° SE 18:23:39 10° ENE
STARLINK-1235 3.3 18:18:06 10° SW 18:21:06 44° SSE 18:24:08 10° ENE
USA 81 4.1 18:16:35 10° N 18:21:52 70° E 18:27:07 10° SSE
Cosmos 494 Rocket 4.2 18:17:23 10° S 18:22:18 48° ESE 18:27:17 10° NNE
STARLINK-1199 3.6 18:19:32 10° SW 18:22:27 37° SSE 18:25:24 10° ENE
STARLINK-1191 3.5 18:20:00 10° SW 18:22:55 37° SSE 18:25:51 10° ENE
CZ-4C R/B 3.8 18:17:54 10° W 18:22:58 37° NNW 18:29:00 10° NE
Cosmos 1733 3.5 18:19:44 10° SSE 18:23:18 42° E 18:26:54 10° NNE
STARLINK-1210 3.5 18:20:26 10° SW 18:23:21 37° SSE 18:26:18 10° ENE
STARLINK-1221 3.5 18:20:53 10° SW 18:23:49 37° SSE 18:26:47 10° ENE
STARLINK-1219 3.5 18:21:19 10° SW 18:24:16 38° SSE 18:27:13 10° ENE
STARLINK-1083 3.7 18:20:15 10° WNW 18:24:17 76° SSW 18:28:20 10° ESE
STARLINK-67 2.4 18:22:02 10° SW 18:24:35 59° SSE 18:27:09 10° ENE
Cosmos 1709 Rocket 4.2 18:18:36 10° N 18:24:40 50° ENE 18:30:37 10° SSE
STARLINK-1222 3.5 18:21:45 10° SW 18:24:41 38° SSE 18:27:39 10° ENE
STARLINK-1098 3.9 18:20:51 10° WNW 18:24:57 61° N 18:29:04 10° E
STARLINK-1237 4.4 18:21:35 10° SSW 18:25:08 31° SE 18:28:43 10° E
STARLINK-1211 3.5 18:22:13 10° SW 18:25:09 38° SSE 18:28:06 10° ENE
STARLINK-1214 3.5 18:22:40 10° SW 18:25:37 38° SSE 18:28:34 10° ENE
FREGAT/IRIS 2.8 18:23:07 10° SE 18:25:41 40° ENE 18:28:18 10° N
STARLINK-1245 3.5 18:23:09 10° SW 18:26:05 39° SSE 18:29:01 10° ENE
Cosmos 1331 Rocket 4.0 18:20:57 10° NNW 18:26:10 81° ENE 18:31:19 10° SSE
STARLINK-1238 3.5 18:23:34 10° SW 18:26:30 39° SSE 18:29:29 10° ENE
SPOT 3 Rocket 4.2 18:21:57 10° SE 18:26:41 36° ENE 18:31:25 10° N
Cosmos 1674 3.0 18:23:39 10° NNW 18:27:25 70° W 18:31:07 10° S
STARLINK-1205 3.4 18:24:30 10° SW 18:27:26 39° SSE 18:30:23 10° ENE
STARLINK-1204 3.4 18:24:55 10° SW 18:27:51 40° SSE 18:30:49 10° ENE
STARLINK-1125 3.7 18:24:52 10° WNW 18:28:54 72° SSW 18:32:56 10° ESE
SL-14 R/B 3.6 18:25:16 10° N 18:29:13 47° ENE 18:33:06 10° SSE
Cosmos 2219 Rocket 3.4 18:23:57 10° SW 18:29:23 46° NW 18:34:50 10° NNE
STARLINK-1202 4.3 18:26:06 10° SSW 18:29:43 33° SE 18:33:22 10° ENE
STARLINK-1123 3.9 18:25:51 10° WNW 18:29:58 62° N 18:34:05 10° E
KORONAS-FOTON 4.1 18:26:43 10° NNW 18:30:33 71° W 18:34:19 10° S
STARLINK-1109 3.8 18:29:09 10° WNW 18:33:11 68° SSW 18:37:10 10° SE
STARLINK-1246 4.2 18:30:58 10° SSW 18:34:41 36° SE 18:38:26 10° ENE
STARLINK-1097 3.9 18:30:49 10° WNW 18:34:57 64° NNE 18:38:50 11° E
Cosmos 1943 Rocket 2.9 18:31:26 10° NNW 18:36:32 36° NE 18:41:19 12° ESE
MONITOR-E 3.8 18:35:12 10° SSE 18:37:47 56° ENE 18:40:24 10° N
STARLINK-1091 3.8 18:33:50 10° WNW 18:37:51 65° SSW 18:41:39 11° SE
Cosmos 1980 3.8 18:33:06 10° SSW 18:38:48 84° WNW 18:44:32 10° NNE
Cosmos 1766 3.3 18:34:59 10° S 18:38:59 89° W 18:43:00 10° N
STARLINK-1099 3.8 18:35:49 10° WNW 18:39:58 65° NNE 18:43:38 13° E
S3M 4.1 18:34:33 10° S 18:40:57 88° E 18:47:23 10° N
Ariane Rocket 3.1 18:37:22 10° SSE 18:42:27 83° WSW 18:47:35 10° NNW
Cosmos 2084 4.2 18:38:42 10° WSW 18:43:08 59° NW 18:47:35 10° NE
STARLINK-1224 4.0 18:39:49 10° SW 18:43:36 40° SE 18:47:24 10° ENE
STARLINK-1104 3.8 18:40:49 10° WNW 18:44:58 67° NNE 18:48:25 14° E
Cosmos 1455 Rocket 3.0 18:41:38 10° S 18:45:57 74° E 18:50:19 10° NNE
Cosmos 1110 Rocket 4.5 18:41:46 10° NNW 18:46:59 65° WSW 18:52:08 10° S
TSX-5 4.5 18:41:48 10° NNW 18:47:31 63° NE 18:51:27 13° SE
STARLINK-1225 3.9 18:44:27 10° SW 18:48:17 43° SE 18:51:55 11° ENE
STARLINK-1144 3.7 18:45:47 10° WNW 18:49:56 70° NNE 18:53:11 16° E
STARLINK-1203 3.8 18:46:24 10° SW 18:50:12 47° SSE 18:53:42 12° ENE
Cosmos 1892 Rocket 4.3 18:46:07 10° NNW 18:50:31 57° W 18:54:55 10° S
STARLINK-1072 4.0 18:47:03 10° WNW 18:50:58 54° SSW 18:54:14 14° SE
Cosmos 1626 Rocket 3.6 18:47:49 10° N 18:52:12 56° ENE 18:56:29 10° SSE
SL-16 R/B 2.4 18:46:51 10° S 18:52:17 50° ESE 18:57:45 10° NE
STARLINK-1230 3.9 18:49:02 10° SW 18:52:54 46° SSE 18:56:22 12° ENE
Cosmos 2333 Rocket 4.1 18:47:53 10° WSW 18:52:59 33° NW 18:58:06 10° NNE
USA 186 2.1 18:51:27 10° S 18:54:54 77° WSW 18:58:18 10° NNW
STARLINK-1103 3.7 18:50:45 10° WNW 18:54:55 72° NNE 18:57:58 18° E
Cosmos 1626 2.0 18:51:24 10° N 18:55:08 85° E 18:58:51 10° S
STARLINK-1096 4.1 18:51:31 10° WNW 18:55:24 50° SSW 18:58:31 15° SE
Cosmos 2084 Rocket 4.1 18:51:22 10° NW 18:55:40 45° NE 18:58:47 18° ESE
Cosmos 1953 3.5 18:53:53 15° SE 18:55:59 23° E 18:59:08 10° NE
ARGOS Delta rocket 4.4 18:50:56 10° S 18:56:01 69° W 19:01:23 10° NNW
STARLINK-1234 2.6 18:53:07 10° WSW 18:56:06 78° SSE 18:58:25 16° ENE
STARLINK-1243 3.8 18:53:40 10° SW 18:57:35 49° SSE 19:00:53 14° ENE
Okean 1-7 Rocket 4.3 18:54:08 10° NNW 18:58:27 55° W 19:02:43 10° S
NOSS 2-1 (E) 4.2 18:55:32 10° WSW 18:58:52 46° NW 19:02:42 10° NE
Cosmos 1602 Rocket 3.7 18:55:20 10° N 18:59:44 53° ENE 19:03:55 11° SSE
STARLINK-1079 4.2 18:56:01 10° WNW 18:59:52 47° SSW 19:02:49 16° SE
STARLINK-1101 3.7 18:55:45 10° WNW 18:59:55 74° NNE 19:02:46 19° E
Aureole 3 4.3 18:57:29 10° SSE 19:01:10 34° E 19:05:43 10° NNE
STARLINK-1236 3.7 18:58:17 10° SW 19:02:13 52° SSE 19:05:22 15° ENE
STARLINK-1116 4.3 19:00:30 10° WNW 19:04:19 45° SSW 19:07:08 17° SSE
ATLAS 2AS CENTAUR R/B 3.8 18:57:12 10° NW 19:04:25 38° NNE 19:10:15 14° E
STARLINK-1102 3.6 19:00:44 10° WNW 19:04:54 77° NNE 19:07:32 22° ESE
H-2A R/B 2.5 19:01:33 10° S 19:06:50 64° WSW 19:12:00 10° NNW
Aureole 2 Rocket 3.4 19:06:10 10° N 19:09:20 31° ENE 19:10:31 25° E
STARLINK-1111 3.6 19:05:42 10° WNW 19:09:51 80° NNE 19:12:19 24° ESE
STARLINK-1269 3.6 19:07:37 10° SW 19:11:36 59° SSE 19:14:25 18° ENE
Terra 4.0 19:10:56 10° ENE 19:12:03 11° NE 19:13:09 10° NE
STARLINK-1094 4.5 19:09:30 10° WNW 19:13:16 39° SW 19:15:46 18° SSE
Cosmos 1544 Rocket 3.7 19:09:00 10° SSW 19:13:24 79° W 19:17:52 10° N
ERBS 3.5 19:10:23 10° W 19:13:36 40° NNW 19:16:50 10° NE
USA 234 3.3 19:07:48 10° ENE 19:14:13 56° SE 19:20:38 10° SW
Cosmos 2297 4.1 19:09:14 10° NW 19:14:50 64° WSW 19:20:27 10° SSE
STARLINK-1073 3.6 19:10:42 10° WNW 19:14:51 83° NNE 19:17:06 26° ESE
CZ-2C R/B 3.8 19:10:11 10° NNE 19:14:56 62° ESE 19:19:35 10° S
STARLINK-1200 3.5 19:12:17 10° SW 19:16:18 63° SSE 19:18:56 20° ENE
Cosmos 1825 Rocket 4.3 19:14:59 10° N 19:19:04 35° ENE 19:20:41 26° ESE
STARLINK-1121 3.6 19:15:41 10° WNW 19:19:50 87° NNE 19:21:53 29° ESE
STARLINK-1192 3.5 19:16:55 10° SW 19:20:55 67° SSE 19:23:24 22° ENE
Cosmos 2237 Rocket 3.3 19:17:15 10° SW 19:22:40 46° NW 19:28:07 10° NNE
COSMOS 2455 4.5 19:19:26 10° NNW 19:24:06 22° NNE 19:28:01 13° ENE
Cosmos 1302 Rocket 4.4 19:19:19 10° NNW 19:24:33 64° WSW 19:29:43 10° S
STARLINK-1106 3.5 19:20:39 10° WNW 19:24:48 89° SW 19:26:39 32° ESE
STARLINK-1244 3.4 19:21:41 10° WSW 19:25:43 71° SSE 19:28:01 24° ENE
STARLINK-1201 2.9 19:22:47 10° WSW 19:26:04 86° NNW 19:27:31 31° ENE
CZ-2C R/B 2.7 19:21:54 10° NNE 19:26:57 49° E 19:31:56 10° S
Cosmos 1992 Rocket 4.1 19:22:35 10° NNW 19:27:46 61° ENE 19:30:33 27° SE
Cosmos 2184 Rocket 4.1 19:21:36 10° N 19:27:53 58° ENE 19:32:14 20° SSE
Cosmos 1758 Rocket 3.8 19:24:09 10° N 19:28:26 49° ENE 19:30:09 31° SE
Cosmos 1269 Rocket 4.3 19:24:28 10° SSW 19:29:45 71° WNW 19:35:05 10° NNE
STARLINK-1112 3.5 19:25:38 10° WNW 19:29:48 86° SSW 19:31:27 36° ESE
STARLINK-1138 3.4 19:26:22 10° WSW 19:30:24 75° SSE 19:32:32 27° ENE
STARLINK-1209 2.9 19:28:31 10° W 19:31:24 65° NNW 19:32:14 40° NE
STARLINK-1228 2.9 19:29:30 10° W 19:32:21 64° NNW 19:33:08 41° NE
NOSS 2-2 (C) 4.5 19:27:15 10° NW 19:32:44 83° NE 19:37:14 25° SE
Cosmos 1953 Rocket 4.3 19:30:35 10° N 19:34:41 35° ENE 19:35:32 32° E
STARLINK-1128 3.5 19:30:38 10° WNW 19:34:48 82° SSW 19:36:15 39° ESE
ARGOS 4.2 19:29:51 10° S 19:35:02 46° W 19:40:14 10° NNW
STARLINK-1143 3.4 19:31:07 10° WSW 19:35:11 78° SSE 19:37:07 30° ENE
SL-8 R/B 3.6 19:31:16 10° W 19:36:03 73° S 19:38:02 35° ESE
Cosmos 2251 Rocket 3.8 19:31:32 10° S 19:36:35 45° ESE 19:41:41 10° NE
SL-24 R/B 4.1 19:32:04 10° NNE 19:36:53 89° ESE 19:41:02 10° SSW
Cosmos 1656 Rocket 4.3 19:33:39 10° NNW 19:39:02 41° NE 19:41:14 29° E
STARLINK-1113 3.6 19:35:37 10° WNW 19:39:46 78° SSW 19:41:02 43° SE
Cosmos 1470 3.3 19:38:28 10° SSW 19:42:16 58° WNW 19:46:09 10° N
Cosmos 1606 Rocket 4.0 19:43:16 38° E 19:43:28 38° E 19:47:35 10° NNE
STARLINK-1119 3.6 19:40:35 10° WNW 19:44:44 74° SSW 19:45:48 47° SE
STARLINK-1241 3.4 19:41:35 10° WSW 19:45:36 87° SSE 19:47:06 38° ENE
STARLINK-1233 3.1 19:42:42 10° W 19:45:51 67° NNW 19:46:21 54° NE
STARLINK-1212 3.1 19:43:11 10° W 19:46:17 67° NNW 19:46:46 55° NE
Cosmos 2315 Rocket 4.5 19:40:21 10° SSW 19:46:37 65° WNW 19:52:58 10° N
STARLINK-1105 3.1 19:43:36 10° W 19:46:44 67° NNW 19:47:13 55° NE
STARLINK-1206 3.1 19:44:06 10° W 19:47:13 66° NNW 19:47:38 57° NNE
STARLINK-1247 3.1 19:44:33 10° W 19:47:39 66° NNW 19:48:03 57° NNE
ISS -3.9 19:44:38 10° WNW 19:48:00 80° SSW 19:48:11 75° SSE
Resurs 1-3 4.0 19:44:43 17° S 19:48:00 60° WSW 19:52:23 10° NNW
STARLINK-1227 3.1 19:44:58 10° W 19:48:05 66° NNW 19:48:30 57° NNE
ATLAS CENTAUR R/B 4.2 19:46:58 10° NNW 19:48:23 11° N 19:49:45 10° N
STARLINK-1218 3.1 19:45:27 10° W 19:48:33 65° NNW 19:48:55 58° NNE
Cosmos 2154 Rocket 4.2 19:42:30 10° N 19:48:46 55° ENE 19:51:33 32° SE
STARLINK-1226 3.1 19:45:55 10° W 19:49:02 65° NNW 19:49:23 58° NNE
STARLINK-1254 3.1 19:46:18 10° W 19:49:27 65° NNW 19:49:48 58° NNE
ERS-1 Rocket 3.8 19:48:48 30° E 19:49:41 32° ENE 19:54:08 10° N
STARLINK-1114 3.6 19:45:36 10° WNW 19:49:44 70° SSW 19:50:36 51° SE
STARLINK-1215 3.1 19:46:49 10° W 19:49:55 65° NNW 19:50:14 59° NNE
STARLINK-1239 3.4 19:46:10 10° WSW 19:50:11 90° NNW 19:51:30 42° ENE
Cosmos 1758 4.1 19:46:11 10° SSW 19:50:13 54° WNW 19:54:15 10° N
STARLINK-1231 3.1 19:47:15 10° W 19:50:22 64° NNW 19:50:39 60° NNE
STARLINK-1232 3.1 19:48:10 10° W 19:51:16 64° NNW 19:51:31 60° NNE
STARLINK-1217 3.1 19:48:37 10° W 19:51:43 64° NNW 19:51:58 60° NNE
USA 245 4.2 19:50:07 39° ESE 19:51:45 55° ENE 19:57:28 10° N
IRIDIUM 104 4.5 19:46:38 10° N 19:51:53 73° W 19:56:26 14° S
STARLINK-1208 3.1 19:49:02 10° W 19:52:10 64° NNW 19:52:25 60° NNE
STARLINK-1229 3.1 19:49:31 10° W 19:52:37 63° NNW 19:52:49 61° N
BREEZE-M DEB (TANK) 3.2 19:46:47 10° W 19:52:45 69° SSW 19:53:10 61° SSE
STARLINK-1271 3.1 19:49:58 10° W 19:53:05 63° NNW 19:53:16 61° N
STARLINK-1270 3.1 19:50:26 10° W 19:53:32 63° NNW 19:53:42 61° N
BREEZE M DEB (TANK) 4.5 19:46:09 10° SW 19:53:49 30° SSE 19:53:49 30° SSE
STARLINK-1154 3.1 19:50:52 10° W 19:53:59 62° NNW 19:54:07 61° N
STARLINK-1130 (DARKSAT) 3.7 19:50:34 10° WNW 19:54:41 66° SSW 19:55:22 54° SSE
STARLINK-1240 3.5 19:50:46 10° WSW 19:54:48 86° NNW 19:55:56 46° ENE
STARLINK-1197 3.2 19:51:47 10° W 19:54:53 62° NNW 19:54:59 61° N
Cosmos 2369 Rocket 2.1 19:49:34 10° NNW 19:55:20 89° WSW 19:57:50 35° SSE
Resurs 01 Rocket 1.8 19:53:05 28° S 19:55:20 71° WSW 19:59:46 10° NNW
STARLINK-1189 3.2 19:52:14 10° W 19:55:20 62° NNW 19:55:26 61° N
SPOT 5 3.8 19:56:05 27° ENE 19:56:05 27° ENE 19:59:44 10° N
STARLINK-1187 3.3 19:53:06 10° W 19:56:13 58° NNW 19:56:20 58° N
STARLINK-1188 3.2 19:53:09 10° W 19:56:14 61° NNW 19:56:17 61° N
STARLINK-1198 3.2 19:53:22 10° W 19:56:28 61° NNW 19:56:31 61° N
STARLINK-1235 3.4 19:53:49 10° W 19:56:55 56° NNW 19:57:05 55° N
STARLINK-1199 3.3 19:55:05 10° W 19:58:11 60° NNW 19:58:13 60° N
STARLINK-1191 3.3 19:55:33 10° W 19:58:39 60° NNW 19:58:39 60° NNW
STARLINK-67 4.0 19:56:09 10° W 19:58:04 35° NW 19:58:04 35° NW
Cosmos 2263 4.1 19:53:24 10° NNW 19:59:03 75° ENE 20:01:00 42° SE
STARLINK-1210 3.3 19:55:59 10° W 19:59:04 60° NNW 19:59:04 60° NNW
STARLINK-1216 3.5 19:55:24 10° WSW 19:59:26 83° NNW 20:00:23 51° ENE
STARLINK-1221 3.3 19:56:27 10° W 19:59:32 60° NNW 19:59:32 60° NNW
STARLINK-1084 3.7 19:55:32 10° WNW 19:59:39 62° SSW 20:00:09 56° S
STARLINK-1219 3.3 19:56:54 10° W 19:59:57 59° NNW 19:59:57 59° NNW
STARLINK-1222 3.3 19:57:20 10° W 20:00:23 59° NNW 20:00:23 59° NNW
STARLINK-1211 3.4 19:57:48 10° W 20:00:48 59° NNW 20:00:48 59° NNW
STARLINK-1214 3.4 19:58:15 10° W 20:01:15 58° NNW 20:01:15 58° NNW
STARLINK-1245 3.4 19:58:45 10° W 20:01:40 57° NNW 20:01:40 57° NNW
STARLINK-1238 3.4 19:59:10 10° W 20:02:07 57° NNW 20:02:07 57° NNW
STARLINK-1205 3.5 20:00:07 10° W 20:02:59 56° NW 20:02:59 56° NW
STARLINK-1204 3.5 20:00:33 10° W 20:03:23 55° NW 20:03:23 55° NW
STARLINK-1237 3.5 20:00:04 10° WSW 20:04:06 80° NNW 20:04:52 56° NE
STARLINK-1098 3.7 20:00:31 10° WNW 20:04:36 58° SSW 20:04:55 56° S
Cosmos 1726 2.0 20:06:30 81° SSW 20:06:40 89° W 20:10:27 10° N
Landsat 7 3.9 20:06:34 53° ESE 20:07:14 59° ENE 20:11:56 10° N
STARLINK-1202 3.6 20:04:41 10° WSW 20:08:43 77° NNW 20:09:18 62° NE
Nadezhda 1 Rocket 4.0 20:06:17 30° SSE 20:09:34 66° E 20:15:54 10° NNE
STARLINK-1123 3.9 20:05:32 10° WNW 20:09:35 55° SSW 20:09:44 54° SSW
Cosmos 921 Rocket 4.4 20:06:19 10° N 20:09:20 24° NE 20:09:20 24° NE
Cosmos 2228 2.9 20:11:03 66° E 20:11:03 66° E 20:15:10 10° NNE
MOS 1 Rocket 3.8 20:06:47 10° N 20:11:56 71° WNW 20:17:17 10° SSW
SAR-Lupe-2 3.8 20:09:22 10° NNE 20:12:21 60° NNE 20:12:21 60° NNE
CZ-4C R/B 4.4 20:08:22 10° NW 20:13:21 25° N 20:19:03 10° NE
STARLINK-1246 3.6 20:09:48 10° WSW 20:13:51 74° NNW 20:14:18 65° NE
STARLINK-1097 4.0 20:10:30 10° WNW 20:14:29 51° SW 20:14:29 51° SW
Cosmos 292 Rocket 4.5 20:12:49 10° NNW 20:17:27 49° WSW 20:19:07 34° SSW
STARLINK-1099 4.2 20:15:30 10° WNW 20:19:17 47° SW 20:19:17 47° SW
Cosmos 1943 3.2 20:19:28 55° ESE 20:19:43 55° ESE 20:25:16 10° NE
Cosmos 1943 Rocket 2.9 20:15:09 10° NW 20:20:26 47° WSW 20:22:51 29° SSW
Cosmos 2074 Rocket 4.4 20:16:27 10° NNW 20:22:36 60° W 20:26:45 22° SSW
STARLINK-1224 3.7 20:18:41 10° W 20:22:43 69° NNW 20:22:45 69° NNW
Cosmos 2058 Rocket 3.9 20:24:09 38° NE 20:24:09 38° NE 20:27:17 10° NNE
NOSS 3-4 (A) 4.0 20:16:42 10° NW 20:23:28 63° NE 20:25:57 42° ESE
NOSS 3-4 (C) 4.0 20:16:48 10° NW 20:23:34 62° NE 20:26:03 42° ESE
STARLINK-1104 4.4 20:20:30 10° WNW 20:24:04 43° SW 20:24:04 43° SW
Cosmos 1328 4.0 20:22:51 10° NNW 20:26:44 70° W 20:26:44 70° W
STARLINK-1225 3.8 20:23:25 10° W 20:27:17 66° NNW 20:27:17 66° NNW
STARLINK-1203 3.9 20:25:07 10° W 20:28:44 61° NW 20:28:44 61° NW
STARLINK-1230 3.9 20:28:04 10° W 20:31:44 62° NW 20:31:44 62° NW
Cosmos 1953 3.8 20:29:29 16° SW 20:32:13 34° WNW 20:35:53 10° N
SPOT 1/Viking Rocket 3.4 20:32:06 70° SSE 20:32:44 86° ENE 20:38:00 10° NNW
NOSS 3-3 (A) 3.8 20:28:13 10° SSW 20:34:04 71° SE 20:40:45 10° NE
NOSS 3-3 (C) 3.8 20:28:19 10° SSW 20:34:10 71° SE 20:40:51 10° NE
Spot 2 Rocket 3.8 20:33:06 47° SSW 20:34:24 63° WSW 20:39:30 10° NNW
SL-16 R/B 3.7 20:31:25 10° WSW 20:36:37 36° NW 20:41:49 10° NNE
STARLINK-1243 4.1 20:32:47 10° W 20:36:16 56° NW 20:36:16 56° NW
STARLINK-1236 4.3 20:37:28 10° W 20:40:46 51° WNW 20:40:46 51° WNW
IGS 5A 3.8 20:42:14 62° WNW 20:42:14 62° WNW 20:45:57 10° NNW
Terra 2.3 20:49:36 52° NNE 20:49:36 52° NNE 20:53:32 10° N
CARTOSAT-1 4.1 20:50:52 55° N 20:50:52 55° N 20:54:16 10° NNW
Cosmos 2341 Rocket 3.9 20:46:32 10° N 20:52:55 88° E 20:53:50 68° SSE
Cosmos 1726 Rocket 4.2 20:55:09 53° WNW 20:55:09 53° WNW 20:59:24 10° N
ATLAS 2AS CENTAUR R/B 2.7 20:48:37 10° NW 20:56:22 89° NE 20:57:42 64° SE
USA 234 3.5 20:50:53 10° ENE 20:57:22 67° NNW 21:03:51 10° WSW
Cosmos 1603 3.9 20:53:25 16° SW 20:57:55 68° WNW 21:03:33 10° NNE
APEX 4.3 20:58:42 10° NNW 21:05:45 89° WSW 21:06:05 82° SSE
CZ-2C R/B 4.4 21:02:37 10° N 21:07:01 28° WNW 21:11:23 10° WSW
Cosmos 1980 Rocket 4.5 21:04:09 10° N 21:07:05 14° NNE 21:09:09 12° NE
Aureole 1 Rocket 4.2 21:07:14 57° S 21:09:02 82° ESE 21:15:35 10° NNE
COSMOS 2455 3.0 21:05:12 10° NNW 21:11:09 64° NE 21:11:09 64° NE
Iridium 4 Rocket 4.3 21:09:05 10° N 21:11:53 37° N 21:11:53 37° N
Cosmos 1461 4.3 21:12:09 10° NW 21:15:09 40° NNW 21:15:09 40° NNW
Cosmos 2218 Rocket 3.9 21:15:26 10° N 21:21:25 85° N 21:21:25 85° N
Cosmos 1656 Rocket 4.5 21:17:22 10° NW 21:22:37 42° WSW 21:22:37 42° WSW
ERS-1 Rocket 4.0 21:28:47 41° W 21:28:47 41° W 21:33:09 10° NNW
ATLAS CENTAUR R/B 4.1 21:27:09 10° NNW 21:29:03 13° NNE 21:29:15 13° NNE
Cosmos 2181 Rocket 4.0 21:33:10 79° NW 21:33:10 79° NW 21:39:14 10° N
SPOT 5 4.2 21:35:19 32° WNW 21:35:19 32° WNW 21:38:10 10° NNW
Cosmos 2369 Rocket 4.3 21:35:06 10° WNW 21:38:32 17° W 21:39:39 16° WSW
CZ-4C R/B 3.9 21:57:45 10° NW 22:03:48 36° NNE 22:06:33 28° ENE
Mayak 1.3 22:05:40 10° N 22:06:55 19° N 22:06:55 19° N
Terra 4.2 22:28:29 17° WNW 22:28:29 17° WNW 22:30:28 10° NW
Cosmos 1697 Rocket 3.8 22:22:08 10° NNW 22:26:03 39° N 22:26:03 39° N
SL-16 R/B 4.4 22:24:20 10° N 22:27:56 17° NNE 22:29:36 15° NE
USA 234 4.0 22:33:43 10° ENE 22:39:56 49° N 22:46:10 10° WNW
Cosmos 2322 Rocket 4.4 22:39:20 10° N 22:43:03 17° NNE 22:44:37 16° NE
ATLAS 2AS CENTAUR R/B 4.3 22:40:37 10° WNW 22:45:08 24° W 22:45:08 24° W
Cosmos 1980 Rocket 3.5 22:47:11 10° NNW 22:50:54 35° N 22:50:54 35° N
Cosmos 2082 Rocket 4.2 23:15:19 21° NE 23:15:19 21° NE 23:17:19 10° NE
SL-16 R/B 4.1 23:21:37 25° ENE 23:22:24 26° NE 23:27:22 10° N
ATLAS 5 CENTAUR R/B 4.0 23:39:11 23° NNE 23:39:11 23° NNE 23:41:35 10° NE
Cosmos 1833 Rocket 4.1 23:45:09 35° NNE 23:45:09 35° NNE 23:48:20 10° NNE
CZ-2D R/B 4.2 23:51:35 10° NE 23:54:16 19° ENE 23:54:16 19° ENE
